Location: Andershausen
(51.8462°N, 9.8595°E)
Time: 07:26:29
(UTC+00:00)

ARIANE 6 FM1 Upper Stage - Pass Details

Date: 18 November 2025
Orbit: 522 x 611 km, 62.0° (Epoch: 11 December)

Event Time Altitude Azimuth Distance (km) Brightness Sun altitude
Rises 16:14:02 0° 271° (W) 2,666 7.6 -7.5°
Reaches altitude 10° 16:16:32 10° 285° (WNW) 1,771 6.1 -7.9°
Maximum altitude 16:19:50 24° 341° (NNW) 1,105 4.2 -8.3°
Drops below altitude 10° 16:23:08 10° 38° (NE) 1,769 4.7 -8.8°
Enters shadow 16:23:27 - 40° (NE) 1,877 4.8 -8.9°
